Вернуться в каталог

STARLINK-37172

АктивенСвязьSSO
NORAD 68395·PAYLOAD·🇺🇸 United States

Запущен Mar 26, 2026 с Vandenberg Space Force Base

Loading…

Ближайшие Пролёты (ближайшие 24 часа)

TLE

СвежийSource: CelesTrak SupGP

Эпоха: Sep 14, 2026, 22:47 UTC

1 68395C 26063R   26257.94979167 -.00019612  00000+0 -60874-3 0  2577
2 68395  97.2863  38.8408 0001021  92.0809 310.9803 15.33452804    11

Отслеживайте STARLINK-37172 в реальном времени с AllMySat

Download on the App Store